KE9LZ-9 Weather Reports


Display with metric or nautical units.
time (UTC)temp
F
wind
direction
speed
MPH
gust
MPH
rain 1hr
in
rain 24hr
in
rain mn
in
humidity
%
barometer
mb
20240521105004 46 31 1.0 1.0 0.00 0.19 0.00 99 1011.5
20240521104004 46 26 0.0 2.0 0.00 0.19 0.00 99 1011.6
20240521103004 46 34 1.0 1.0 0.00 0.19 0.00 99 1011.8
20240521101004 46 19 0.0 1.0 0.00 0.19 0.00 99 1011.9
20240521100005 46 2 0.0 1.0 0.00 0.19 0.00 99 1011.8
20240521095003 46 320 0.0 1.0 0.00 0.19 0.00 99 1011.9
20240521094004 46 357 0.0 1.0 0.00 0.19 0.00 99 1011.8
20240521093004 46 315 0.0 1.0 0.00 0.19 0.00 99 1011.4
20240521092004 46 8 0.0 1.0 0.00 0.19 0.00 99 1011.7
20240521090003 47 26 1.0 1.0 0.00 0.19 0.00 99 1011.9
20240521085004 47 40 0.0 1.0 0.00 0.19 0.00 99 1012.0
20240521084003 47 334 0.0 2.0 0.00 0.19 0.00 99 1012.0
20240521082003 47 338 1.0 2.0 0.00 0.19 0.00 99 1012.0
20240521081004 47 321 0.0 1.0 0.00 0.19 0.00 99 1012.0
20240521080004 47 343 0.0 1.0 0.00 0.19 0.00 99 1012.0
20240521074004 47 322 0.0 1.0 0.00 0.19 0.00 99 1012.2
20240521073004 47 5 0.0 1.0 0.00 0.19 0.00 99 1012.2
20240521072003 48 2 0.0 2.0 0.00 0.19 0.00 99 1012.2
20240521071004 48 53 1.0 2.0 0.00 0.19 0.00 99 1012.2
20240521070004 48 20 1.0 1.0 0.00 0.19 0.00 99 1012.2
20240521065004 48 19 0.0 1.0 0.00 0.19 0.00 99 1012.2
20240521064004 48 356 0.0 1.0 0.00 0.19 0.00 99 1012.1
20240521063004 48 3 0.0 1.0 0.00 0.19 0.00 99 1012.0
20240521062004 49 358 1.0 1.0 0.00 0.19 0.00 99 1011.9
20240521061005 49 18 1.0 2.0 0.00 0.19 0.00 99 1012.2
20240521060005 49 98 2.0 3.0 0.00 0.19 0.00 99 1012.1
20240521055004 49 18 0.0 1.0 0.00 0.19 0.00 99 1012.3
20240521054003 49 13 0.0 1.0 0.00 0.19 0.00 99 1012.3
20240521053004 50 20 1.0 1.0 0.00 0.19 0.00 99 1012.2
20240521052004 49 23 1.0 1.0 0.00 0.19 0.00 99 1012.3
20240521051004 49 15 0.0 1.0 0.00 0.19 0.00 99 1012.2
20240521050004 50 19 0.0 1.0 0.00 0.19 0.00 99 1012.0
20240521044004 50 26 0.0 1.0 0.00 0.19 0.19 99 1012.3
20240521042004 51 340 0.0 1.0 0.00 0.19 0.19 99 1012.3
20240521040005 51 11 0.0 1.0 0.00 0.19 0.19 99 1012.2
20240521035004 51 7 1.0 1.0 0.00 0.19 0.19 99 1012.0
20240521032005 52 355 0.0 1.0 0.00 0.19 0.19 99 1011.7
20240521031004 53 310 1.0 1.0 0.00 0.19 0.19 99 1011.8
20240521030004 53 3 0.0 1.0 0.00 0.19 0.19 99 1011.8
20240521025005 54 322 0.0 1.0 0.00 0.19 0.19 99 1011.8
20240521023004 55 315 0.0 1.0 0.00 0.19 0.19 98 1011.9
20240521022004 55 338 0.0 1.0 0.00 0.19 0.19 97 1011.6
20240521021005 56 19 0.0 1.0 0.00 0.19 0.19 97 1011.6
20240521015004 57 357 1.0 2.0 0.00 0.19 0.19 95 1011.3
20240521013004 59 22 1.0 1.0 0.00 0.19 0.19 92 1011.2
20240521012004 60 332 1.0 1.0 0.00 0.19 0.19 90 1011.0
20240521010004 62 325 0.0 1.0 0.00 0.19 0.19 84 1011.0
20240521005005 63 11 0.0 2.0 0.00 0.19 0.19 81 1011.0
20240521004003 64 0 1.0 1.0 0.00 0.19 0.19 79 1011.1
20240521002004 64 37 0.0 2.0 0.00 0.19 0.19 74 1011.1
20240521001004 65 3 1.0 1.0 0.00 0.19 0.19 77 1011.3
20240521000004 65 338 0.0 1.0 0.00 0.19 0.19 73 1011.3
20240520235004 65 355 0.0 2.0 0.00 0.19 0.19 69 1011.3
20240520233005 65 28 1.0 2.0 0.00 0.19 0.19 69 1011.2
20240520230003 65 7 1.0 3.0 0.00 0.19 0.19 69 1011.4
20240520225003 65 64 1.0 2.0 0.00 0.19 0.19 69 1011.5
20240520224004 64 113 1.0 3.0 0.00 0.19 0.19 69 1011.4
20240520223004 66 285 1.0 3.0 0.00 0.19 0.19 66 1011.5
20240520222004 65 239 1.0 3.0 0.00 0.19 0.19 68 1011.5
20240520221004 65 123 2.0 3.0 0.00 0.19 0.19 68 1011.7
20240520215004 64 116 1.0 5.0 0.00 0.19 0.19 70 1011.7
20240520214004 63 341 2.0 5.0 0.00 0.19 0.19 72 1011.7
20240520213004 63 79 1.0 3.0 0.00 0.19 0.19 73 1011.6
20240520211004 63 123 2.0 5.0 0.00 0.19 0.19 72 1011.8
20240520210005 63 121 2.0 6.0 0.00 0.19 0.19 72 1011.9
20240520205004 64 91 2.0 3.0 0.00 0.19 0.19 72 1011.7
20240520204005 63 119 2.0 5.0 0.00 0.19 0.19 72 1011.7
20240520203004 63 112 2.0 5.0 0.00 0.19 0.19 74 1011.8
20240520201005 63 86 3.0 6.0 0.00 0.19 0.19 74 1011.9
20240520195005 63 83 2.0 5.0 0.00 0.19 0.19 77 1011.8
20240520194005 63 0 1.0 5.0 0.00 0.19 0.19 84 1011.9
20240520193005 62 92 1.0 5.0 0.00 0.19 0.19 85 1011.8
20240520192003 61 61 2.0 7.0 0.00 0.19 0.19 88 1012.0
20240520191004 61 60 2.0 8.0 0.00 0.19 0.19 88 1012.2
20240520190004 61 41 3.0 5.0 0.00 0.19 0.19 89 1012.0
20240520185004 62 67 1.0 5.0 0.00 0.19 0.19 91 1011.7
20240520184004 61 97 2.0 5.0 0.00 0.19 0.19 92 1012.0
20240520183004 61 49 1.0 3.0 0.00 0.19 0.19 92 1011.8
20240520182004 60 68 2.0 3.0 0.00 0.19 0.19 94 1011.7
20240520181004 59 81 2.0 3.0 0.00 0.19 0.19 94 1012.0
20240520180003 60 72 2.0 6.0 0.00 0.18 0.18 94 1012.3
20240520175004 61 5 1.0 3.0 0.00 0.18 0.18 91 1012.8
20240520174004 60 112 2.0 3.0 0.00 0.18 0.18 91 1013.0
20240520173003 60 270 1.0 3.0 0.00 0.18 0.18 91 1012.9
20240520171003 60 96 2.0 3.0 0.00 0.18 0.18 90 1012.4
20240520170003 60 21 1.0 5.0 0.00 0.18 0.18 93 1012.5
20240520165004 59 27 1.0 3.0 0.00 0.18 0.18 94 1012.4
20240520164004 58 83 2.0 5.0 0.00 0.18 0.18 96 1012.3
20240520163004 58 345 1.0 3.0 0.00 0.18 0.18 96 1012.2
20240520161005 58 87 1.0 3.0 0.00 0.18 0.18 96 1012.1
20240520160005 58 347 1.0 3.0 0.01 0.18 0.18 98 1012.2
20240520155004 57 100 1.0 5.0 0.01 0.18 0.18 97 1012.6
20240520153004 56 45 2.0 3.0 0.03 0.18 0.18 99 1013.1
20240520152004 55 42 1.0 3.0 0.05 0.18 0.18 99 1013.0
20240520150004 55 29 1.0 2.0 0.07 0.17 0.17 99 1013.3
20240520145004 54 84 2.0 3.0 0.09 0.17 0.17 99 1013.3
20240520144003 55 42 1.0 2.0 0.09 0.16 0.16 99 1013.4
20240520143004 55 26 1.0 2.0 0.09 0.15 0.15 99 1013.6
20240520142004 55 84 1.0 2.0 0.08 0.13 0.13 99 1013.7
20240520141003 55 330 0.0 1.0 0.07 0.11 0.11 99 1014.0
20240520140005 55 74 0.0 1.0 0.07 0.10 0.10 99 1013.9
20240520135004 55 324 0.0 2.0 0.06 0.08 0.08 99 1013.9
20240520132005 55 18 1.0 2.0 0.05 0.05 0.05 98 1013.5
20240520131004 55 50 1.0 2.0 0.04 0.04 0.04 97 1013.6
20240520125004 55 25 1.0 2.0 0.02 0.02 0.02 93 1013.7
20240520124003 56 0 1.0 3.0 0.00 0.00 0.00 88 1014.2
20240520123004 56 7 1.0 5.0 0.00 0.00 0.00 85 1014.3
20240520122004 57 284 1.0 5.0 0.00 0.00 0.00 83 1014.6
20240520121005 58 359 1.0 6.0 0.00 0.00 0.00 80 1014.6
20240520120005 57 256 1.0 3.0 0.00 0.00 0.00 82 1014.7
20240520115005 56 276 1.0 3.0 0.00 0.00 0.00 85 1014.6
20240520113005 55 346 1.0 1.0 0.00 0.00 0.00 93 1014.7
20240520112004 54 325 0.0 1.0 0.00 0.00 0.00 92 1014.5
20240520111005 54 59 1.0 1.0 0.00 0.00 0.00 92 1014.3
20240520110005 54 29 1.0 2.0 0.00 0.00 0.00 91 1014.5